DECAYED

DMSP 5D-2 F13 DEB, 40559 (Decayed)

Orbit data source: Space-Track

DMSP 5D-2 F13 DEB, 40559 was space debris in SSO originally from a launch on Fri, 24 Mar 1995 UTC launched from the Air Force Western Test Range (AFWTR). Debris objects in space refer to the collection of defunct objects orbiting the Earth. Examples of debris include non-operational satellites, rocket bodies, and fragments generated from explosions, collisions, or faulty payload assembly.

Not visible in the next 10 days
Identifier
40559, 1995-015DS
Orbit
Decayed
Country
Flag of USUS
Related business
Manufacturer
Unknown
Mission
Decayed spacecraft
Bus & Motor
Unknown
Mass
Unknown
Launch date (UTC)
1995-03-24 (31 years ago)
Launch vehicle
Unknown
Launch site
Air Force Western Test Range (AFWTR)
Object type
Payload
Rocket body
Debris
Shape & HBR
Unknown shape, 0.1 m
Radar Cross Section
Small (<0.1 m²)

Expand to show TLE details & history
Last TLE update: 8 months ago

TLE from 8 months ago
0 DMSP 5D-2 F13 DEB
1 40559U 95015DS  25267.27726763  .00804922  00000-0  32235-1 0  9996
2 40559  98.5209 205.0056 0022490 130.2138 230.1068 15.22218509542760
Epoch: 2025-09-24T06:39Z
TLE epoch observation values (Epoch: 2025-09-24T06:39:15.923Z)
Latitude
0.00003°
Longitude
101.83419°
Altitude
512.152 km
Speed
7.602 km/s
True Right ascension
13h 40m 01s
True Declination
0° 00' 00"
Sunlit
Object was in daylight at epoch
Visualization orbit readout
Latitude
Unknown
Longitude
Unknown
Altitude
Unknown
Speed
Unknown
Apparent Right ascension
Unknown
Apparent Declination
Unknown
Sunlit
N/A
Visualization observer readout
Local Sidereal Time
07:19:18
Azimuth
Unknown
Elevation
Unknown
Doppler factor
Unknown
Orbital elements
Apogee altitude
511.625 km
Perigee altitude
480.704 km
Semi-major axis
6,874.302 km
Eccentricity
0.00225
Inclination
98.5209°
RAAN
205.0056°
Arg. of periapsis
130.2138°
True anomaly
229.90943°
Mean anomaly
230.1068°
Eccentric anomaly
230.00808°
Mean motion
3.80803 °/min
Orbital period
94.54 mins
BSTAR
0.032235
Loading maneuver chart data...
Computing Atmospheric mass density...

Documentation

Showing up to 5 results
|